PulseSat

PulseSat

COSMOS 2485 (747)

Last updated on Jan. 18, 2019, 3 a.m. UTC

1 39155U 13019A   19017.58282781  .00000065  00000-0  00000+0 0  9996
2 39155  64.6660 164.7942 0017340 230.5859 359.1689  2.13101885 44584
UTC
Height (km)
Latitude
Longitude
Inclination
Orbital Period

Next 30 passes for location: Hong Kong

Rise time Rise Azimuth (degrees) Set time Set Azimuth (degrees) Duration Max altitude (degrees)

No matching passes for this satellites

PulseSat

PulseSat is the new satellites software and hardware trackering solution by Pulsely.
Satellite Two Line Element Set source: US Air Force Space Command

Download PulseSat for iOS
© 2017 Pulsely Limited